This is the latest recevied weather packets stored in our database for station/object DM3DP. If no packets are shown the sender has not sent any weather packets the latest 10 day(s).
| Time | Temp. | Humidity | Pressure | Rain* | Wind** | Luminosity | Snow |
|---|---|---|---|---|---|---|---|
| 1777730794 | 21.67° C | 56% | 1015.2 hPa | 0 mm | - | 92 W/m² | - |
| 1777730464 | 22.22° C | 55% | 1015.1 hPa | 0 mm | - | 71 W/m² | - |
| 1777730133 | 22.22° C | 55% | 1015.2 hPa | 0 mm | - | 94 W/m² | - |
| 1777729804 | 22.78° C | 52% | 1015.2 hPa | 0 mm | - | 112 W/m² | - |
| 1777729473 | 23.33° C | 51% | 1015.2 hPa | 0 mm | - | 69 W/m² | - |
| 1777729144 | 23.89° C | 50% | 1015.1 hPa | 0 mm | - | 52 W/m² | - |
| 1777728814 | 23.89° C | 50% | 1015 hPa | 0 mm | - | 58 W/m² | - |
| 1777728483 | 24.44° C | 48% | 1014.9 hPa | 0 mm | - | 74 W/m² | - |
| 1777728154 | 25° C | 48% | 1014.9 hPa | 0 mm | - | 78 W/m² | - |
| 1777727824 | 25° C | 48% | 1014.9 hPa | 0 mm | - | 109 W/m² | - |
| 1777727494 | 25° C | 46% | 1014.9 hPa | 0 mm | - | 126 W/m² | - |
| 1777727163 | 25.56° C | 47% | 1014.9 hPa | 0 mm | - | 129 W/m² | - |
| 1777726833 | 25° C | 46% | 1015 hPa | 0 mm | - | 236 W/m² | - |
| 1777726503 | 25° C | 44% | 1015.3 hPa | 0 mm | - | 175 W/m² | - |
| 1777726173 | 25.56° C | 44% | 1015.3 hPa | 0 mm | - | 123 W/m² | - |
| 1777725843 | 25.56° C | 44% | 1015.3 hPa | 0 mm | - | 100 W/m² | - |
| 1777725513 | 26.11° C | 42% | 1015.4 hPa | 0 mm | - | 129 W/m² | - |
| 1777725183 | 26.67° C | 42% | 1015.4 hPa | 0 mm | - | 176 W/m² | - |
| 1777724853 | 26.67° C | 42% | 1015.4 hPa | 0 mm | - | 449 W/m² | - |
| 1777724523 | 26.67° C | 42% | 1015.5 hPa | 0 mm | - | 565 W/m² | - |
| 1777724194 | 26.67° C | 43% | 1015.6 hPa | 0 mm | - | 598 W/m² | - |
| 1777723863 | 26.67° C | 44% | 1015.7 hPa | 0 mm | - | 490 W/m² | - |
| 1777723533 | 26.11° C | 43% | 1015.8 hPa | 0 mm | - | 605 W/m² | - |
| 1777723203 | 26.11° C | 46% | 1015.9 hPa | 0 mm | - | 633 W/m² | - |
| 1777722873 | 26.11° C | 46% | 1016.1 hPa | 0 mm | - | 596 W/m² | - |
* Rain latest hour (hover to see other rain measurements)
** Current wind speed in m/s (hover to see current wind gust speed)